shoulder
new_line
new_line
first
second
third
Al di la della Luna; Beyond the Moon; Astrophotography; Astrofotografia; Danilo Pivato
 
 
         
         
2011

Orbital Elements

Epoch 2010 Oct. 11.0 TT = JDT 2455480.5
T 2010 Sept. 29.25352 TT                                MPC
q   4.5108867            (2000.0)            P               Q
z  -0.0005738      Peri.   80.42003     +0.16377319     +0.82386184
 +/-0.0000001      Node   218.26853     -0.78064584     +0.44452149
e   1.0025885      Incl.   61.17608     +0.60313383     +0.35164231
 
         
         
2011.10.22
 
         
         
       
       
         
         
         

 

       
 
Since: 01/01/2004
 
       
 
Since: 01/11/2010